Regional Weather Roundup
Issued by NWS Little Rock, AR

Home | Current Version | Previous Version | Graphics & Text | Print | Product List | Glossary On
Versions: 1 2 3 4 5 6 7 8 9 10 11 12 13 14 15 16 17 18 19 20 21 22 23 24 25 26 27
000
ASUS44 KLZK 261605
RWRLZK

WEATHER ROUNDUP FOR ARKANSAS
NATIONAL WEATHER SERVICE LITTLE ROCK AR
1100 AM CDT THU MAY 26 2016

NOTE: "FAIR" INDICATES FEW OR NO CLOUDS BELOW 12,000 FEET WITH NO
SIGNIFICANT WEATHER AND/OR OBSTRUCTIONS TO VISIBILITY.

ARZ001-003-010-029-261700-
NORTHWEST ARKANSAS

CITY           SKY/WX    TMP DP  RH WIND       PRES   REMARKS
FAYETTEVILLE   PTSUNNY   79  73  82 S13       29.98S
FORT SMITH     PTSUNNY   83  70  64 S10G22    29.94F HX  87
HARRISON       CLOUDY    81  71  71 S12       30.01R HX  85
BENTONVILLE    CLOUDY    79  70  73 SW8       30.00R
ROGERS           N/A     81  72  74 S13       30.00R
SILOAM SPGS    CLOUDY    81  66  61 S12G17    29.98S
HIGHFILL       PTSUNNY   81  74  79 S9        29.98R HX  86
SPRINGDALE     CLOUDY    79  72  78 S16       30.00R
$$

ARZ004-005-016-261700-
NORTH CENTRAL ARKANSAS

CITY           SKY/WX    TMP DP  RH WIND       PRES   REMARKS
BATESVILLE     CLOUDY    81  73  78 S7        30.02F HX  85
FLIPPIN        MOSUNNY  N/A N/A N/A S7        29.96R
MTN HOME       MOSUNNY   83  73  72 S9        29.97S HX  89
$$

ARZ040-041-261700-
WEST CENTRAL ARKANSAS

CITY           SKY/WX    TMP DP  RH WIND       PRES   REMARKS
MENA           CLOUDY    81  73  78 S6        29.98F HX  85
MOUNT IDA      PTSUNNY   81  71  71 VRB6      29.97F HX  85
$$

ARZ009-017-025-026-028-261700-
NORTHEAST ARKANSAS

CITY           SKY/WX    TMP DP  RH WIND       PRES   REMARKS
CORNING        LGT RAIN  79  77  94 S17       30.01S
JONESBORO      CLOUDY    78  72  81 SW17G23   30.02F
NEWPORT        CLOUDY    79  75  87 S10       30.04S
WALNUT RIDGE   MOSUNNY   79  72  78 S17       30.01S
BLYTHEVILLE    CLOUDY    81  72  74 SW15G23   30.04F HX  85
NW BLYTHEVILLE PTSUNNY   81  72  74 SW14G22   30.04
$$

ARZ022-023-033-042-044-261700-
CENTRAL ARKANSAS

CITY           SKY/WX    TMP DP  RH WIND       PRES   REMARKS
LITTLE ROCK    PTSUNNY   85  73  67 SW7       30.02R HX  91
N LITTLE ROCK    N/A     82  73  74 SW7       30.00R HX  87
JACKSONVILLE   MOSUNNY   82  73  73 S9        30.01S HX  88
SEARCY         CLOUDY    82  73  74 SW8       30.03R HX  88
HOT SPRINGS    PTSUNNY   81  71  71 SW9       30.01S HX  85
RUSSELLVILLE   PTSUNNY   82  70  66 SW8       29.99R HX  86
CLINTON        PTSUNNY   82  73  74 S6        30.02R HX  88
$$

ARZ036-261700-
EAST ARKANSAS

CITY           SKY/WX    TMP DP  RH WIND       PRES   REMARKS
WEST MEMPHIS   PTSUNNY   81  71  71 S8        30.05S HX  85
$$

ARZ050-053-066-070-073-261700-
SOUTHWEST ARKANSAS

CITY           SKY/WX    TMP DP  RH WIND       PRES   REMARKS
ARKADELPHIA      N/A     82  73  74 S10       30.01S HX  87
CAMDEN         PTSUNNY   86  72  62 S8        30.01F HX  92
TEXARKANA      CLOUDY    80  73  79 S10       29.99F
EL DORADO      PTSUNNY   82  72  71 S14G20    30.02S HX  87
DE QUEEN       CLOUDY    80  74  81 S8        29.96S HX  85
$$

ARZ056-057-069-261700-
SOUTHEAST ARKANSAS

CITY           SKY/WX    TMP DP  RH WIND       PRES   REMARKS
PINE BLUFF     PTSUNNY   83  72  69 S10       30.03R HX  88
STUTTGART      PTSUNNY   84  68  58 S15       30.04R HX  87
MONTICELLO     CLOUDY    84  72  67 SW12      30.04F HX  89

$$






USA.gov is the U.S. government's official web portal to all federal, state and local government web resources and services.